File downld08.txt from Chesterfield
Temp Hi Low Out Dew Wind Wind Wind Hi Hi Wind Heat THW Rain Heat Cool In In In In Wind Wind ISS Arc.
Date Time Out Temp Temp Hum Pt. Speed Dir Run Speed Dir Chill Index Index Bar Rain Rate D-D D-D Temp Hum Dew Heat Samp Tx Recept Int.
-----------------------------------------------------------------------------------------------------------------------------------------------------------------------------------------------
4/29/26 12:30a 44.6 45.8 44.6 39 21.1 2.0 E 1.00 3.0 E 44.6 43.2 43.2 30.123 0.00 0.00 0.425 0.000 67.7 44 45.0 65.7 678 2 100.0 30
4/29/26 1:00a 43.9 44.6 43.9 45 23.9 2.0 E 1.00 4.0 E 43.9 42.6 42.6 30.137 0.00 0.00 0.440 0.000 67.3 44 44.6 65.3 675 2 100.0 30
4/29/26 1:30a 43.9 44.0 43.8 51 26.9 3.0 E 1.50 6.0 ENE 42.8 42.8 41.7 30.139 0.00 0.00 0.440 0.000 67.1 44 44.4 65.1 680 2 100.0 30
4/29/26 2:00a 43.3 43.9 43.3 53 27.3 1.0 E 0.50 4.0 E 43.3 42.3 42.3 30.125 0.00 0.00 0.452 0.000 66.8 44 44.2 64.7 680 2 100.0 30
4/29/26 2:30a 42.5 43.4 42.5 55 27.5 1.0 ESE 0.50 3.0 ESE 42.5 41.5 41.5 30.130 0.00 0.00 0.469 0.000 66.6 44 44.0 64.5 675 2 100.0 30
4/29/26 3:00a 42.7 42.8 42.4 57 28.5 2.0 E 1.00 5.0 ESE 42.7 41.8 41.8 30.093 0.00 0.00 0.465 0.000 66.4 44 43.8 64.3 679 2 100.0 30
4/29/26 3:30a 40.6 42.8 40.6 55 25.7 0.0 NE 0.00 3.0 ESE 40.6 39.6 39.6 30.079 0.00 0.00 0.508 0.000 66.2 44 43.6 64.0 675 2 100.0 30
4/29/26 4:00a 39.4 40.8 39.4 60 26.7 0.0 SE 0.00 3.0 ESE 39.4 38.6 38.6 30.072 0.00 0.00 0.533 0.000 66.1 43 42.9 63.8 682 2 100.0 30
4/29/26 4:30a 39.1 39.4 38.7 60 26.4 0.0 SE 0.00 2.0 SE 39.1 38.3 38.3 30.074 0.00 0.00 0.540 0.000 65.9 43 42.8 63.6 679 2 100.0 30
4/29/26 5:00a 39.0 39.2 38.9 62 27.1 1.0 E 0.50 3.0 E 39.0 38.2 38.2 30.079 0.00 0.00 0.542 0.000 65.6 43 42.5 63.3 673 2 100.0 30
4/29/26 5:30a 39.2 39.2 39.0 63 27.7 1.0 E 0.50 3.0 E 39.2 38.5 38.5 30.080 0.00 0.00 0.537 0.000 65.5 43 42.4 63.2 677 2 100.0 30
4/29/26 6:00a 38.7 39.3 38.4 65 27.9 0.0 E 0.00 2.0 E 38.7 38.0 38.0 30.092 0.00 0.00 0.548 0.000 65.5 43 42.4 63.2 678 2 100.0 30
4/29/26 6:30a 39.8 40.0 38.7 63 28.2 0.0 E 0.00 2.0 E 39.8 39.1 39.1 30.081 0.00 0.00 0.525 0.000 66.8 45 44.8 64.9 678 2 100.0 30
4/29/26 7:00a 39.7 39.9 39.5 62 27.7 0.0 E 0.00 3.0 N 39.7 38.9 38.9 30.086 0.00 0.00 0.527 0.000 68.3 47 47.3 66.7 679 2 100.0 30
4/29/26 7:30a 40.6 40.6 39.7 61 28.2 0.0 --- 0.00 0.0 --- 40.6 39.8 39.8 30.087 0.00 0.00 0.508 0.000 69.5 48 48.9 67.8 677 2 100.0 30
4/29/26 8:00a 41.9 42.0 40.6 62 29.8 0.0 NNE 0.00 1.0 NNE 41.9 41.1 41.1 30.085 0.00 0.00 0.481 0.000 70.6 49 50.5 69.0 676 2 100.0 30
4/29/26 8:30a 43.3 43.3 42.0 61 30.7 1.0 WNW 0.50 4.0 WNW 43.3 42.5 42.5 30.078 0.00 0.00 0.452 0.000 71.3 49 51.1 70.0 679 2 100.0 30
4/29/26 9:00a 44.9 45.0 43.2 59 31.4 1.0 W 0.50 4.0 SW 44.9 44.1 44.1 30.067 0.00 0.00 0.419 0.000 71.7 49 51.5 70.5 676 2 100.0 30
4/29/26 9:30a 47.0 47.0 45.0 58 33.0 2.0 W 1.00 6.0 WNW 47.0 46.1 46.1 30.057 0.00 0.00 0.375 0.000 71.3 47 50.0 69.8 679 2 100.0 30
4/29/26 10:00a 51.8 51.8 47.0 53 35.2 2.0 SSE 1.00 9.0 NE 51.8 50.5 50.5 30.035 0.00 0.00 0.275 0.000 70.6 47 49.4 68.8 675 2 100.0 30
4/29/26 10:30a 53.9 53.9 51.9 50 35.7 2.0 W 1.00 9.0 NNE 53.9 52.2 52.2 30.013 0.00 0.00 0.231 0.000 70.1 47 48.9 68.1 679 2 100.0 30
4/29/26 11:00a 56.3 56.7 53.9 46 35.8 3.0 NE 1.50 9.0 WNW 56.3 54.2 54.2 30.001 0.00 0.00 0.181 0.000 69.8 47 48.7 67.9 682 2 100.0 30
4/29/26 11:30a 58.4 58.4 56.3 43 36.0 2.0 SSE 1.00 10.0 S 58.4 56.0 56.0 29.977 0.00 0.00 0.137 0.000 69.6 46 47.9 67.6 681 2 100.0 30
4/29/26 12:00p 60.3 60.4 58.4 41 36.5 4.0 SW 2.00 10.0 W 60.3 57.7 57.7 29.975 0.00 0.00 0.098 0.000 69.8 46 48.1 67.8 679 2 100.0 30
4/29/26 12:30p 61.6 61.6 60.3 40 37.0 4.0 WNW 2.00 11.0 WNW 61.6 58.9 58.9 29.972 0.00 0.00 0.071 0.000 69.9 46 48.2 67.8 680 2 100.0 30
4/29/26 1:00p 63.7 63.7 61.5 38 37.6 3.0 WNW 1.50 12.0 W 63.7 60.8 60.8 29.959 0.00 0.00 0.027 0.000 70.2 46 48.4 68.2 677 2 100.0 30
4/29/26 1:30p 65.0 65.0 63.5 37 38.1 4.0 SSE 2.00 11.0 SSE 65.0 62.0 62.0 29.952 0.00 0.00 0.000 0.000 70.4 45 48.0 68.3 676 2 100.0 30
4/29/26 2:00p 66.2 66.2 65.0 35 37.7 4.0 SW 2.00 16.0 WSW 66.2 63.1 63.1 29.939 0.00 0.00 0.000 0.025 70.6 45 48.2 68.6 680 2 100.0 30
4/29/26 2:30p 65.9 66.2 65.3 36 38.2 4.0 S 2.00 14.0 ESE 65.9 62.9 62.9 29.934 0.00 0.00 0.000 0.019 70.6 45 48.2 68.6 682 2 100.0 30
4/29/26 3:00p 66.2 66.5 65.9 34 37.0 4.0 ESE 2.00 13.0 SSE 66.2 63.0 63.0 29.924 0.00 0.00 0.000 0.025 70.6 45 48.2 68.6 678 2 100.0 30
4/29/26 3:30p 65.5 66.4 65.5 36 37.8 4.0 SE 2.00 14.0 SSE 65.5 62.5 62.5 29.910 0.00 0.00 0.000 0.010 70.6 45 48.2 68.6 682 2 100.0 30
4/29/26 4:00p 65.6 65.9 65.0 37 38.6 4.0 ESE 2.00 15.0 SE 65.6 62.7 62.7 29.894 0.00 0.00 0.000 0.012 70.6 45 48.2 68.6 678 2 100.0 30
4/29/26 4:30p 64.1 65.6 63.9 40 39.3 4.0 SE 2.00 15.0 SSE 64.1 61.4 61.4 29.885 0.00 0.00 0.019 0.000 70.5 45 48.1 68.4 678 2 100.0 30
4/29/26 5:00p 63.5 64.4 63.5 40 38.7 4.0 ESE 2.00 12.0 SE 63.5 60.8 60.8 29.886 0.00 0.00 0.031 0.000 70.4 45 48.0 68.3 680 2 100.0 30
4/29/26 5:30p 62.7 63.5 62.7 40 38.0 4.0 ESE 2.00 13.0 SE 62.7 60.0 60.0 29.887 0.00 0.00 0.048 0.000 70.2 45 47.9 68.1 677 2 100.0 30
4/29/26 6:00p 61.5 62.7 61.5 40 36.9 4.0 SE 2.00 14.0 SE 61.5 58.8 58.8 29.881 0.00 0.00 0.073 0.000 70.1 45 47.8 67.9 681 2 100.0 30
4/29/26 6:30p 60.4 61.5 60.4 40 35.9 3.0 SE 1.50 11.0 S 60.4 57.7 57.7 29.864 0.00 0.00 0.096 0.000 69.8 45 47.5 67.7 684 2 100.0 30
4/29/26 7:00p 59.5 60.4 59.5 42 36.4 3.0 SE 1.50 11.0 ESE 59.5 57.0 57.0 29.867 0.00 0.00 0.115 0.000 69.5 46 47.8 67.6 679 2 100.0 30
4/29/26 7:30p 58.6 59.5 58.6 42 35.6 3.0 SE 1.50 11.0 E 58.6 56.1 56.1 29.870 0.00 0.00 0.133 0.000 69.1 46 47.4 67.3 677 2 100.0 30
4/29/26 8:00p 57.5 58.6 57.5 44 35.7 3.0 SE 1.50 9.0 SE 57.5 55.2 55.2 29.870 0.00 0.00 0.156 0.000 68.8 46 47.2 67.0 678 2 100.0 30
4/29/26 8:30p 56.7 57.5 56.7 48 37.2 2.0 SE 1.00 8.0 SE 56.7 54.7 54.7 29.867 0.00 0.00 0.173 0.000 68.4 46 46.8 66.7 681 2 100.0 30
4/29/26 9:00p 55.9 56.7 55.9 52 38.5 3.0 SSE 1.50 11.0 SSE 55.9 54.1 54.1 29.866 0.00 0.00 0.190 0.000 68.2 46 46.6 66.5 671 2 100.0 30
4/29/26 9:30p 54.3 55.9 54.3 55 38.5 3.0 SE 1.50 10.0 SE 54.3 52.9 52.9 29.873 0.00 0.00 0.223 0.000 68.0 46 46.4 66.3 682 2 100.0 30
4/29/26 10:00p 52.5 54.3 52.5 58 38.1 2.0 SE 1.00 8.0 SSE 52.5 51.3 51.3 29.882 0.00 0.00 0.260 0.000 67.8 47 46.8 66.2 674 2 100.0 30
4/29/26 10:30p 51.1 52.5 51.1 60 37.7 1.0 SE 0.50 6.0 SSE 51.1 50.2 50.2 29.874 0.00 0.00 0.290 0.000 67.6 47 46.6 66.0 677 2 100.0 30
4/29/26 11:00p 49.8 51.1 49.8 62 37.3 3.0 SE 1.50 10.0 E 49.5 49.1 48.8 29.872 0.00 0.00 0.317 0.000 67.4 47 46.5 65.7 669 2 100.0 30
4/29/26 11:30p 48.8 49.8 48.7 63 36.8 2.0 E 1.00 8.0 SE 48.8 48.1 48.1 29.877 0.00 0.00 0.338 0.000 67.2 46 45.7 65.4 680 2 100.0 30
4/30/26 12:00a 47.7 48.7 47.7 65 36.5 2.0 W 1.00 8.0 E 47.7 47.0 47.0 29.872 0.00 0.00 0.360 0.000 67.0 46 45.5 65.2 680 2 100.0 30
4/30/26 12:30a 47.0 47.7 47.0 66 36.2 1.0 SW 0.50 4.0 SE 47.0 46.3 46.3 29.864 0.00 0.00 0.375 0.000 66.7 46 45.3 64.8 673 2 100.0 30
4/30/26 1:00a 46.5 47.0 46.4 67 36.1 1.0 SE 0.50 6.0 SE 46.5 45.9 45.9 29.856 0.00 0.00 0.385 0.000 66.6 46 45.2 64.7 677 2 100.0 30
4/30/26 1:30a 46.1 46.5 46.1 69 36.5 1.0 SSE 0.50 6.0 SE 46.1 45.6 45.6 29.847 0.00 0.00 0.394 0.000 66.4 46 45.0 64.5 677 2 100.0 30
4/30/26 2:00a 45.6 46.1 45.5 73 37.4 0.0 SSE 0.00 5.0 S 45.6 45.2 45.2 29.841 0.00 0.00 0.404 0.000 66.2 46 44.8 64.2 678 2 100.0 30
4/30/26 2:30a 45.0 45.6 45.0 77 38.2 0.0 W 0.00 2.0 W 45.0 44.7 44.7 29.826 0.00 0.00 0.417 0.000 66.1 46 44.7 64.1 684 2 100.0 30
4/30/26 3:00a 44.8 45.1 44.8 80 39.0 1.0 SSW 0.50 5.0 SSE 44.8 44.6 44.6 29.813 0.04 0.11 0.421 0.000 66.0 46 44.6 64.0 681 2 100.0 30
4/30/26 3:30a 44.7 44.9 44.6 83 39.9 1.0 SSE 0.50 5.0 S 44.7 44.6 44.6 29.803 0.03 0.08 0.423 0.000 65.8 46 44.4 63.8 680 2 100.0 30
4/30/26 4:00a 44.5 44.7 44.5 84 40.0 1.0 SSE 0.50 6.0 SE 44.5 44.4 44.4 29.802 0.04 0.11 0.427 0.000 65.6 46 44.3 63.6 679 2 100.0 30
4/30/26 4:30a 44.5 44.6 44.5 86 40.6 1.0 SSE 0.50 4.0 SSW 44.5 44.4 44.4 29.808 0.06 0.15 0.427 0.000 65.5 46 44.2 63.4 682 2 100.0 30
4/30/26 5:00a 44.6 44.6 44.5 86 40.7 1.0 SE 0.50 4.0 SE 44.6 44.5 44.5 29.799 0.01 0.11 0.425 0.000 65.3 46 44.0 63.2 675 2 100.0 30
4/30/26 5:30a 44.6 44.7 44.5 86 40.7 2.0 ESE 1.00 8.0 E 44.6 44.5 44.5 29.783 0.01 0.00 0.425 0.000 65.2 46 43.9 63.1 680 2 100.0 30
4/30/26 6:00a 44.5 44.7 44.4 86 40.6 2.0 SE 1.00 7.0 SSE 44.5 44.4 44.4 29.779 0.01 0.00 0.427 0.000 65.4 46 44.1 63.3 681 2 100.0 30
4/30/26 6:30a 44.5 44.5 44.4 86 40.6 1.0 SSE 0.50 6.0 SE 44.5 44.4 44.4 29.779 0.01 0.00 0.427 0.000 66.7 48 46.4 65.0 679 2 100.0 30
4/30/26 7:00a 44.7 44.7 44.4 87 41.1 1.0 SSE 0.50 4.0 ESE 44.7 44.7 44.7 29.779 0.01 0.00 0.423 0.000 68.2 49 48.3 66.8 673 2 100.0 30
4/30/26 7:30a 45.0 45.1 44.7 87 41.4 1.0 SE 0.50 4.0 ESE 45.0 45.0 45.0 29.786 0.01 0.00 0.417 0.000 69.4 50 49.9 67.9 679 2 100.0 30
4/30/26 8:00a 45.4 45.5 45.0 87 41.8 0.0 ESE 0.00 3.0 ESE 45.4 45.4 45.4 29.784 0.00 0.00 0.408 0.000 70.3 51 51.3 68.8 679 2 100.0 30
4/30/26 8:30a 46.2 46.3 45.4 87 42.5 1.0 SE 0.50 3.0 SSE 46.2 46.2 46.2 29.777 0.03 0.09 0.392 0.000 70.8 49 50.7 69.2 678 2 100.0 30
4/30/26 9:00a 47.0 47.1 46.3 87 43.3 1.0 ESE 0.50 4.0 SE 47.0 47.1 47.1 29.769 0.01 0.09 0.375 0.000 70.9 49 50.8 69.4 678 2 100.0 30
4/30/26 9:30a 47.7 47.8 47.0 87 44.0 1.0 W 0.50 3.0 ESE 47.7 47.8 47.8 29.763 0.00 0.00 0.360 0.000 72.0 48 51.2 70.9 679 2 100.0 30
4/30/26 10:00a 48.2 48.3 47.8 87 44.5 1.0 S 0.50 8.0 ESE 48.2 48.3 48.3 29.758 0.00 0.00 0.350 0.000 72.5 47 51.1 71.5 678 2 100.0 30
4/30/26 10:30a 48.2 48.4 48.1 87 44.5 1.0 SE 0.50 6.0 ESE 48.2 48.3 48.3 29.761 0.00 0.00 0.350 0.000 72.9 46 50.9 72.0 679 2 100.0 30
4/30/26 11:00a 47.7 48.2 47.6 87 44.0 2.0 ESE 1.00 8.0 SE 47.7 47.8 47.8 29.754 0.00 0.00 0.360 0.000 73.2 45 50.6 72.4 678 2 100.0 30
4/30/26 11:30a 47.8 47.9 47.7 87 44.1 2.0 ESE 1.00 7.0 ESE 47.8 47.9 47.9 29.752 0.00 0.00 0.358 0.000 73.4 45 50.8 72.6 681 2 100.0 30
4/30/26 12:00p 48.2 48.2 47.8 87 44.5 2.0 SE 1.00 8.0 SE 48.2 48.3 48.3 29.757 0.00 0.00 0.350 0.000 73.5 44 50.2 72.7 679 2 100.0 30
4/30/26 12:30p 48.9 48.9 48.2 88 45.5 2.0 SE 1.00 6.0 SE 48.9 49.1 49.1 29.753 0.00 0.00 0.335 0.000 73.5 44 50.2 72.7 680 2 100.0 30
4/30/26 1:00p 49.8 50.0 48.9 87 46.1 1.0 S 0.50 4.0 S 49.8 50.0 50.0 29.748 0.01 0.00 0.317 0.000 73.7 44 50.4 72.9 675 2 100.0 30
4/30/26 1:30p 50.0 50.0 49.8 87 46.3 1.0 S 0.50 4.0 SE 50.0 50.2 50.2 29.746 0.00 0.00 0.313 0.000 74.0 43 50.1 73.3 679 2 100.0 30
4/30/26 2:00p 50.5 50.5 49.9 87 46.8 1.0 S 0.50 6.0 SSE 50.5 50.6 50.6 29.742 0.00 0.00 0.302 0.000 74.2 43 50.3 73.5 675 2 100.0 30
4/30/26 2:30p 50.9 50.9 50.3 84 46.2 1.0 SE 0.50 6.0 SE 50.9 50.9 50.9 29.731 0.00 0.00 0.294 0.000 74.4 43 50.4 73.8 681 2 100.0 30
4/30/26 3:00p 51.7 51.9 50.9 80 45.7 1.0 SE 0.50 4.0 W 51.7 51.5 51.5 29.726 0.00 0.00 0.277 0.000 74.7 43 50.7 74.1 677 2 100.0 30
4/30/26 3:30p 51.1 51.9 51.0 79 44.8 1.0 NW 0.50 4.0 NW 51.1 51.0 51.0 29.734 0.01 0.00 0.290 0.000 74.7 42 50.1 74.0 678 2 100.0 30
4/30/26 4:00p 50.9 51.1 50.7 83 45.9 1.0 NW 0.50 4.0 NW 50.9 50.9 50.9 29.728 0.00 0.00 0.294 0.000 73.6 43 49.7 72.7 678 2 100.0 30
4/30/26 4:30p 51.3 51.5 50.9 83 46.3 1.0 W 0.50 3.0 W 51.3 51.2 51.2 29.725 0.00 0.00 0.285 0.000 72.7 43 48.9 71.5 682 2 100.0 30
4/30/26 5:00p 51.4 51.5 51.2 87 47.7 1.0 W 0.50 3.0 W 51.4 51.5 51.5 29.727 0.00 0.00 0.283 0.000 71.9 44 48.8 70.4 672 2 100.0 30
4/30/26 5:30p 51.8 51.8 51.4 87 48.1 0.0 SSE 0.00 2.0 SSW 51.8 51.9 51.9 29.740 0.00 0.00 0.275 0.000 71.3 44 48.3 69.5 673 2 100.0 30
4/30/26 6:00p 51.8 51.8 51.5 83 46.8 1.0 SE 0.50 3.0 SE 51.8 51.7 51.7 29.740 0.00 0.00 0.275 0.000 70.8 45 48.4 68.8 678 2 100.0 30
4/30/26 6:30p 51.6 52.0 51.6 86 47.5 1.0 WSW 0.50 4.0 WSW 51.6 51.6 51.6 29.748 0.00 0.00 0.279 0.000 70.4 45 48.0 68.3 680 2 100.0 30
4/30/26 7:00p 51.4 51.6 51.2 86 47.4 0.0 NNW 0.00 3.0 WSW 51.4 51.4 51.4 29.757 0.00 0.00 0.283 0.000 70.0 45 47.7 67.8 679 2 100.0 30
4/30/26 7:30p 51.1 51.4 51.0 85 46.7 1.0 WNW 0.50 5.0 W 51.1 51.1 51.1 29.771 0.00 0.00 0.290 0.000 69.8 46 48.1 67.8 681 2 100.0 30
4/30/26 8:00p 50.0 51.1 50.0 75 42.4 3.0 NW 1.50 12.0 WSW 49.7 49.8 49.5 29.771 0.00 0.00 0.313 0.000 69.6 46 47.9 67.6 680 2 100.0 30
4/30/26 8:30p 49.6 50.1 49.6 74 41.7 1.0 N 0.50 5.0 N 49.6 49.3 49.3 29.781 0.00 0.00 0.321 0.000 69.3 46 47.6 67.4 679 2 100.0 30
4/30/26 9:00p 49.6 49.7 49.5 74 41.7 1.0 NW 0.50 4.0 NW 49.6 49.3 49.3 29.794 0.00 0.00 0.321 0.000 69.0 46 47.4 67.2 676 2 100.0 30
4/30/26 9:30p 49.6 49.7 49.4 75 42.0 1.0 NNW 0.50 7.0 W 49.6 49.4 49.4 29.805 0.00 0.00 0.321 0.000 68.8 46 47.2 67.0 686 2 100.0 30
4/30/26 10:00p 48.5 49.6 48.5 75 40.9 3.0 NW 1.50 12.0 WNW 48.0 48.2 47.7 29.808 0.00 0.00 0.344 0.000 68.6 46 47.0 66.8 680 2 100.0 30
4/30/26 10:30p 47.8 48.5 47.8 74 39.9 5.0 NW 2.50 14.0 N 45.7 47.5 45.4 29.820 0.00 0.00 0.358 0.000 68.2 46 46.6 66.5 676 2 100.0 30
4/30/26 11:00p 47.0 47.8 47.0 73 38.8 4.0 WNW 2.00 14.0 N 45.4 46.6 45.0 29.824 0.00 0.00 0.375 0.000 67.8 46 46.3 66.1 682 2 100.0 30
4/30/26 11:30p 46.4 47.1 46.4 73 38.2 4.0 NW 2.00 11.0 NW 44.7 46.0 44.3 29.822 0.00 0.00 0.387 0.000 67.5 46 46.0 65.8 674 2 100.0 30
5/01/26 12:00a 46.0 46.4 46.0 72 37.5 4.0 NW 2.00 12.0 NW 44.2 45.5 43.7 29.824 0.00 0.00 0.396 0.000 67.3 46 45.8 65.5 672 2 100.0 30
5/01/26 12:30a 45.6 46.0 45.6 71 36.7 5.0 NW 2.50 14.0 W 43.0 45.1 42.5 29.829 0.00 0.00 0.404 0.000 67.0 46 45.5 65.2 679 2 100.0 30
5/01/26 1:00a 45.3 45.6 45.2 72 36.8 3.0 NW 1.50 11.0 NW 44.4 44.8 43.9 29.833 0.00 0.00 0.410 0.000 66.7 46 45.3 64.8 677 2 100.0 30
5/01/26 1:30a 44.5 45.3 44.5 70 35.3 5.0 NW 2.50 12.0 NW 41.8 44.0 41.3 29.834 0.00 0.00 0.427 0.000 66.5 46 45.1 64.6 679 2 100.0 30
5/01/26 2:00a 44.5 44.6 44.3 69 35.0 3.0 NW 1.50 10.0 WNW 43.5 44.0 43.0 29.837 0.00 0.00 0.427 0.000 66.3 46 44.9 64.4 678 2 100.0 30
5/01/26 2:30a 44.0 44.5 44.0 72 35.6 2.0 NW 1.00 7.0 NNW 44.0 43.5 43.5 29.836 0.00 0.00 0.438 0.000 66.1 46 44.7 64.1 676 2 100.0 30
5/01/26 3:00a 43.8 44.0 43.8 71 35.0 2.0 NW 1.00 6.0 NW 43.8 43.3 43.3 29.835 0.00 0.00 0.442 0.000 66.0 46 44.6 64.0 680 2 100.0 30
5/01/26 3:30a 43.4 43.8 43.4 71 34.6 2.0 NNW 1.00 8.0 N 43.4 42.9 42.9 29.836 0.00 0.00 0.450 0.000 65.8 46 44.4 63.8 679 2 100.0 30
5/01/26 4:00a 43.4 43.5 43.4 70 34.3 3.0 NW 1.50 11.0 N 42.2 42.8 41.6 29.840 0.00 0.00 0.450 0.000 65.6 46 44.3 63.6 676 2 100.0 30
5/01/26 4:30a 43.2 43.4 43.2 70 34.1 2.0 NW 1.00 6.0 NW 43.2 42.6 42.6 29.848 0.00 0.00 0.454 0.000 65.4 46 44.1 63.3 675 2 100.0 30
5/01/26 5:00a 43.0 43.3 42.9 70 33.9 2.0 NNW 1.00 9.0 NW 43.0 42.4 42.4 29.849 0.00 0.00 0.458 0.000 65.3 46 44.0 63.2 678 2 100.0 30
5/01/26 5:30a 42.9 43.1 42.9 68 33.1 3.0 NNW 1.50 8.0 NNW 41.7 42.3 41.1 29.856 0.00 0.00 0.460 0.000 65.2 46 43.9 63.1 681 2 100.0 30
5/01/26 6:00a 42.8 43.0 42.7 68 33.0 3.0 NW 1.50 11.0 NW 41.6 42.2 41.0 29.858 0.00 0.00 0.463 0.000 65.3 46 44.0 63.2 679 2 100.0 30
5/01/26 6:30a 42.7 42.9 42.7 67 32.5 2.0 NW 1.00 8.0 N 42.7 42.0 42.0 29.871 0.00 0.00 0.465 0.000 66.6 47 45.7 64.8 675 2 100.0 30
5/01/26 7:00a 43.0 43.1 42.7 66 32.4 3.0 NW 1.50 9.0 N 41.8 42.3 41.1 29.876 0.00 0.00 0.458 0.000 68.1 49 48.2 66.7 681 2 100.0 30
5/01/26 7:30a 43.3 43.3 43.0 62 31.1 4.0 NW 2.00 13.0 WNW 41.1 42.5 40.3 29.885 0.00 0.00 0.452 0.000 69.3 49 49.3 67.7 678 2 100.0 30
5/01/26 8:00a 43.8 43.8 43.2 63 32.0 4.0 NW 2.00 12.0 N 41.7 43.1 41.0 29.888 0.00 0.00 0.442 0.000 70.3 50 50.8 68.7 678 2 100.0 30
5/01/26 8:30a 45.8 46.0 43.8 60 32.7 4.0 NW 2.00 10.0 NW 44.0 45.0 43.2 29.890 0.00 0.00 0.400 0.000 71.1 50 51.5 69.8 683 2 100.0 30
5/01/26 9:00a 45.1 45.8 45.0 59 31.6 5.0 WNW 2.50 14.0 W 42.4 44.3 41.6 29.894 0.00 0.00 0.415 0.000 71.4 48 50.7 70.0 677 2 100.0 30
5/01/26 9:30a 46.9 46.9 45.1 58 32.9 3.0 WNW 1.50 10.0 WNW 46.2 46.0 45.3 29.895 0.00 0.00 0.377 0.000 70.9 47 49.7 69.2 679 2 100.0 30
5/01/26 10:00a 49.0 49.0 46.9 45 28.6 5.0 WNW 2.50 13.0 NNW 47.0 47.7 45.7 29.889 0.00 0.00 0.333 0.000 70.2 47 49.0 68.3 681 2 100.0 30
5/01/26 10:30a 50.1 50.1 49.0 43 28.4 6.0 WNW 3.00 15.0 NW 47.8 48.7 46.4 29.890 0.00 0.00 0.310 0.000 69.7 47 48.6 67.8 682 2 100.0 30
5/01/26 11:00a 51.2 51.2 50.1 39 27.1 6.0 NNW 3.00 15.0 NW 49.1 49.4 47.3 29.884 0.00 0.00 0.287 0.000 69.4 47 48.3 67.6 681 2 100.0 30
5/01/26 11:30a 52.1 52.5 51.1 37 26.6 5.0 WNW 2.50 17.0 WNW 50.7 50.1 48.7 29.882 0.00 0.00 0.269 0.000 69.1 47 48.0 67.4 679 2 100.0 30
5/01/26 12:00p 53.6 53.7 52.1 35 26.6 6.0 NW 3.00 16.0 NW 51.9 51.2 49.5 29.875 0.00 0.00 0.238 0.000 69.1 47 48.0 67.4 678 2 100.0 30
5/01/26 12:30p 54.4 54.7 53.4 34 26.6 6.0 NW 3.00 17.0 NNW 52.9 51.8 50.3 29.865 0.00 0.00 0.221 0.000 69.3 46 47.6 67.4 682 2 100.0 30
5/01/26 1:00p 55.9 55.9 54.0 38 30.6 5.0 WNW 2.50 16.0 N 55.2 53.3 52.6 29.863 0.00 0.00 0.190 0.000 69.5 46 47.8 67.6 682 2 100.0 30
5/01/26 1:30p 55.4 56.0 54.8 28 22.8 6.0 W 3.00 16.0 WSW 54.1 52.2 50.9 29.861 0.00 0.00 0.200 0.000 69.6 46 47.9 67.6 679 2 100.0 30
5/01/26 2:00p 56.9 56.9 55.1 25 21.4 6.0 NW 3.00 12.0 NNW 55.9 53.1 52.1 29.861 0.00 0.00 0.169 0.000 69.7 46 48.0 67.7 677 2 100.0 30
5/01/26 2:30p 57.6 57.6 56.6 25 22.0 7.0 NW 3.50 15.0 WSW 56.3 53.7 52.4 29.859 0.00 0.00 0.154 0.000 69.9 45 47.6 67.7 682 2 100.0 30
5/01/26 3:00p 59.1 59.1 57.1 23 21.3 7.0 NW 3.50 20.0 NW 58.1 54.9 53.9 29.858 0.00 0.00 0.123 0.000 70.2 45 47.9 68.1 676 2 100.0 30
5/01/26 3:30p 56.2 59.2 56.2 26 21.7 6.0 WNW 3.00 16.0 NNW 55.0 52.7 51.5 29.850 0.00 0.00 0.183 0.000 70.3 45 47.9 68.2 677 2 100.0 30
5/01/26 4:00p 57.9 58.1 56.1 22 19.2 5.0 WNW 2.50 14.0 NNW 57.5 53.8 53.4 29.840 0.00 0.00 0.148 0.000 70.4 45 48.0 68.3 679 2 100.0 30
5/01/26 4:30p 59.1 59.1 57.8 24 22.3 5.0 WNW 2.50 13.0 NNW 58.9 54.9 54.7 29.843 0.00 0.00 0.123 0.000 70.4 45 48.0 68.3 680 2 100.0 30
5/01/26 5:00p 59.9 59.9 58.9 27 25.8 4.0 NW 2.00 10.0 NW 59.9 56.0 56.0 29.845 0.00 0.00 0.106 0.000 70.5 45 48.1 68.4 682 2 100.0 30
5/01/26 5:30p 58.7 60.3 58.6 23 21.0 5.0 WNW 2.50 13.0 NW 58.4 54.5 54.2 29.847 0.00 0.00 0.131 0.000 70.4 45 48.0 68.3 679 2 100.0 30
5/01/26 6:00p 58.9 59.2 57.9 24 22.1 4.0 NW 2.00 11.0 NNW 58.9 54.8 54.8 29.851 0.00 0.00 0.127 0.000 70.3 45 47.9 68.2 681 2 100.0 30
5/01/26 6:30p 58.7 59.2 58.7 24 22.0 4.0 NW 2.00 10.0 WNW 58.7 54.6 54.6 29.847 0.00 0.00 0.131 0.000 70.1 45 47.8 67.9 682 2 100.0 30
5/01/26 7:00p 58.4 59.4 58.4 24 21.7 3.0 W 1.50 11.0 SW 58.4 54.4 54.4 29.850 0.00 0.00 0.137 0.000 70.0 45 47.7 67.8 680 2 100.0 30
5/01/26 7:30p 55.9 58.3 55.9 27 22.4 3.0 W 1.50 10.0 NW 55.9 52.5 52.5 29.866 0.00 0.00 0.190 0.000 69.6 45 47.3 67.5 676 2 100.0 30
5/01/26 8:00p 54.4 55.9 54.4 28 21.9 2.0 WNW 1.00 7.0 WNW 54.4 51.4 51.4 29.876 0.00 0.00 0.221 0.000 69.1 45 46.9 67.2 678 2 100.0 30
5/01/26 8:30p 53.4 54.4 53.4 30 22.7 1.0 WNW 0.50 6.0 WSW 53.4 50.7 50.7 29.894 0.00 0.00 0.242 0.000 68.7 45 46.5 66.8 680 2 100.0 30
5/01/26 9:00p 51.9 53.5 51.9 32 22.9 1.0 NW 0.50 3.0 NW 51.9 49.6 49.6 29.897 0.00 0.00 0.273 0.000 68.3 45 46.1 66.5 681 2 100.0 30
5/01/26 9:30p 51.6 51.9 50.8 33 23.4 1.0 NW 0.50 5.0 NNW 51.6 49.5 49.5 29.903 0.00 0.00 0.279 0.000 68.0 45 45.9 66.2 683 2 100.0 30
5/01/26 10:00p 51.0 51.7 51.0 35 24.3 1.0 N 0.50 4.0 NE 51.0 49.1 49.1 29.904 0.00 0.00 0.292 0.000 67.7 45 45.6 65.9 680 2 100.0 30
5/01/26 10:30p 49.8 51.2 49.7 39 25.8 2.0 E 1.00 4.0 N 49.8 48.3 48.3 29.899 0.00 0.00 0.317 0.000 67.4 45 45.3 65.5 676 2 100.0 30
5/01/26 11:00p 51.1 51.1 49.8 37 25.7 1.0 N 0.50 4.0 SW 51.1 49.3 49.3 29.901 0.00 0.00 0.290 0.000 67.1 45 45.0 65.2 681 2 100.0 30
5/01/26 11:30p 50.2 51.3 50.1 41 27.4 1.0 E 0.50 3.0 NE 50.2 48.7 48.7 29.902 0.00 0.00 0.308 0.000 66.9 45 44.9 65.0 679 2 100.0 30
5/02/26 12:00a 49.6 50.2 49.6 44 28.6 1.0 ENE 0.50 3.0 E 49.6 48.3 48.3 29.900 0.00 0.00 0.321 0.000 66.6 45 44.6 64.6 682 2 100.0 30
5/02/26 12:30a 48.4 49.7 48.4 53 32.0 1.0 E 0.50 3.0 E 48.4 47.3 47.3 29.916 0.00 0.00 0.346 0.000 66.5 45 44.5 64.5 676 2 100.0 30
5/02/26 1:00a 46.0 48.4 46.0 60 32.9 2.0 E 1.00 5.0 ENE 46.0 45.2 45.2 29.924 0.00 0.00 0.396 0.000 66.3 45 44.3 64.3 677 2 100.0 30
5/02/26 1:30a 44.7 46.1 44.7 67 34.4 2.0 E 1.00 5.0 E 44.7 44.1 44.1 29.930 0.01 0.00 0.423 0.000 66.1 45 44.1 64.0 681 2 100.0 30
5/02/26 2:00a 44.2 44.7 44.0 69 34.7 2.0 ENE 1.00 4.0 ENE 44.2 43.7 43.7 29.920 0.01 0.00 0.433 0.000 65.9 45 43.9 63.8 680 2 100.0 30
5/02/26 2:30a 44.0 44.5 44.0 73 35.9 2.0 ENE 1.00 4.0 NE 44.0 43.6 43.6 29.915 0.04 0.26 0.438 0.000 65.8 45 43.9 63.7 678 2 100.0 30
5/02/26 3:00a 43.7 44.0 43.6 79 37.6 1.0 ENE 0.50 3.0 NE 43.7 43.4 43.4 29.908 0.02 0.09 0.444 0.000 65.7 45 43.8 63.6 678 2 100.0 30
5/02/26 3:30a 43.3 43.7 43.3 85 39.1 1.0 WNW 0.50 4.0 NW 43.3 43.2 43.2 29.903 0.02 0.05 0.452 0.000 65.5 45 43.6 63.3 680 2 100.0 30
5/02/26 4:00a 43.2 43.3 43.1 87 39.6 0.0 WNW 0.00 3.0 W 43.2 43.1 43.1 29.912 0.01 0.05 0.454 0.000 65.4 45 43.5 63.2 676 2 100.0 30
5/02/26 4:30a 43.1 43.3 42.9 87 39.5 1.0 W 0.50 3.0 WSW 43.1 43.0 43.0 29.909 0.06 0.18 0.456 0.000 65.2 45 43.3 63.0 679 2 100.0 30
5/02/26 5:00a 43.2 43.2 43.0 88 39.9 1.0 W 0.50 4.0 E 43.2 43.2 43.2 29.904 0.03 0.12 0.454 0.000 65.1 45 43.2 62.9 681 2 100.0 30
5/02/26 5:30a 43.1 43.4 43.1 88 39.8 2.0 E 1.00 8.0 ESE 43.1 43.1 43.1 29.897 0.01 0.12 0.456 0.000 64.9 45 43.0 62.7 681 2 100.0 30
5/02/26 6:00a 43.1 43.2 43.0 87 39.5 1.0 ESE 0.50 3.0 ESE 43.1 43.0 43.0 29.885 0.00 0.00 0.456 0.000 65.0 45 43.1 62.8 678 2 100.0 30
5/02/26 6:30a 42.9 43.1 42.9 88 39.6 0.0 SW 0.00 3.0 SSE 42.9 42.9 42.9 29.898 0.00 0.00 0.460 0.000 66.4 47 45.5 64.6 679 2 100.0 30
5/02/26 7:00a 43.1 43.1 42.8 88 39.8 0.0 SW 0.00 2.0 SW 43.1 43.1 43.1 29.914 0.00 0.00 0.456 0.000 67.9 49 48.0 66.5 681 2 100.0 30
5/02/26 7:30a 43.6 43.6 43.1 89 40.6 0.0 --- 0.00 0.0 --- 43.6 43.6 43.6 29.911 0.01 0.00 0.446 0.000 69.2 50 49.8 67.7 676 2 100.0 30
5/02/26 8:00a 43.7 44.0 43.6 88 40.4 0.0 --- 0.00 0.0 --- 43.7 43.7 43.7 29.915 0.01 0.00 0.444 0.000 70.2 50 50.7 68.6 682 2 100.0 30
5/02/26 8:30a 44.9 44.9 43.7 89 41.9 0.0 SSE 0.00 4.0 SSE 44.9 45.0 45.0 29.915 0.00 0.00 0.419 0.000 70.8 50 51.2 69.3 679 2 100.0 30
5/02/26 9:00a 45.4 45.4 44.8 88 42.1 1.0 SE 0.50 5.0 SSW 45.4 45.4 45.4 29.907 0.00 0.00 0.408 0.000 70.9 48 50.2 69.3 680 2 100.0 30
5/02/26 9:30a 46.0 46.0 45.4 88 42.6 1.0 SSE 0.50 4.0 ESE 46.0 46.1 46.1 29.910 0.00 0.00 0.396 0.000 70.5 48 49.9 68.8 677 2 100.0 30
5/02/26 10:00a 46.7 46.7 46.0 87 43.0 2.0 ESE 1.00 6.0 SE 46.7 46.8 46.8 29.905 0.00 0.00 0.381 0.000 69.8 48 49.2 68.0 682 2 100.0 30
5/02/26 10:30a 46.6 46.9 46.5 86 42.6 1.0 SE 0.50 6.0 SE 46.6 46.6 46.6 29.901 0.00 0.00 0.383 0.000 69.3 48 48.8 67.6 677 2 100.0 30
5/02/26 11:00a 46.8 46.8 46.3 87 43.1 2.0 NE 1.00 7.0 NNW 46.8 46.9 46.9 29.902 0.03 0.09 0.379 0.000 68.8 48 48.3 67.2 682 2 100.0 30
5/02/26 11:30a 47.8 47.8 46.8 85 43.5 1.0 NE 0.50 3.0 NE 47.8 47.8 47.8 29.891 0.00 0.00 0.358 0.000 68.5 48 48.0 66.9 679 2 100.0 30
5/02/26 12:00p 50.4 50.8 47.7 78 43.8 1.0 NW 0.50 5.0 NW 50.4 50.3 50.3 29.884 0.00 0.00 0.304 0.000 68.5 48 48.0 66.9 679 2 100.0 30
5/02/26 12:30p 50.7 51.1 50.1 76 43.4 1.0 WSW 0.50 5.0 SSE 50.7 50.5 50.5 29.880 0.00 0.00 0.298 0.000 68.4 48 47.9 66.9 678 2 100.0 30
5/02/26 1:00p 52.5 52.6 50.7 75 44.8 2.0 SE 1.00 8.0 SSW 52.5 52.0 52.0 29.869 0.00 0.00 0.260 0.000 68.4 47 47.4 66.8 677 2 100.0 30
5/02/26 1:30p 52.1 52.5 52.0 73 43.7 2.0 NE 1.00 9.0 SE 52.1 51.6 51.6 29.871 0.00 0.00 0.269 0.000 68.2 47 47.2 66.6 681 2 100.0 30
5/02/26 2:00p 52.2 52.2 51.7 73 43.8 3.0 SE 1.50 9.0 ENE 52.1 51.7 51.6 29.871 0.00 0.00 0.267 0.000 68.1 47 47.1 66.5 678 2 100.0 30
5/02/26 2:30p 54.7 54.7 52.1 60 41.1 3.0 SE 1.50 7.0 SE 54.7 53.4 53.4 29.858 0.00 0.00 0.215 0.000 68.1 47 47.1 66.5 679 2 100.0 30
5/02/26 3:00p 54.9 55.6 54.6 46 34.5 3.0 NW 1.50 9.0 W 54.9 52.9 52.9 29.853 0.00 0.00 0.210 0.000 68.3 47 47.3 66.7 674 2 100.0 30
5/02/26 3:30p 54.9 55.2 54.6 48 35.6 3.0 WNW 1.50 9.0 WNW 54.9 53.0 53.0 29.854 0.00 0.00 0.210 0.000 68.3 47 47.3 66.7 680 2 100.0 30
5/02/26 4:00p 53.9 55.1 53.9 43 31.9 4.0 W 2.00 10.0 SW 53.4 51.8 51.3 29.849 0.00 0.00 0.231 0.000 68.4 47 47.4 66.8 679 2 100.0 30
5/02/26 4:30p 53.3 54.0 53.3 41 30.2 3.0 W 1.50 9.0 SW 53.3 51.2 51.2 29.853 0.00 0.00 0.244 0.000 68.4 46 46.8 66.7 681 2 100.0 30
5/02/26 5:00p 54.1 54.2 53.0 38 29.0 3.0 WNW 1.50 12.0 WNW 54.1 51.8 51.8 29.848 0.00 0.00 0.227 0.000 68.5 46 46.9 66.8 684 2 100.0 30
5/02/26 5:30p 52.8 54.2 52.8 38 27.9 3.0 WSW 1.50 12.0 WNW 52.8 50.7 50.7 29.852 0.00 0.00 0.254 0.000 68.5 46 46.9 66.8 677 2 100.0 30
5/02/26 6:00p 52.3 52.8 52.2 36 26.1 3.0 W 1.50 12.0 WNW 52.2 50.2 50.1 29.860 0.00 0.00 0.265 0.000 68.5 46 46.9 66.8 677 2 100.0 30
5/02/26 6:30p 51.8 52.3 51.8 34 24.3 4.0 WNW 2.00 11.0 W 51.0 49.7 48.9 29.863 0.00 0.00 0.275 0.000 68.6 47 47.6 66.9 678 2 100.0 30
5/02/26 7:00p 53.6 53.8 51.8 29 22.1 4.0 WSW 2.00 11.0 SSW 53.0 50.8 50.2 29.871 0.00 0.00 0.238 0.000 68.7 48 48.2 67.1 678 2 100.0 30
5/02/26 7:30p 51.5 53.6 51.5 31 21.8 5.0 WNW 2.50 14.0 W 50.0 49.3 47.8 29.882 0.00 0.00 0.281 0.000 68.6 48 48.1 67.0 680 2 100.0 30
5/02/26 8:00p 48.9 51.5 48.9 36 23.1 3.0 WNW 1.50 9.0 WSW 48.4 47.2 46.7 29.891 0.00 0.00 0.335 0.000 68.1 48 47.7 66.6 680 2 100.0 30
5/02/26 8:30p 47.4 48.9 47.4 37 22.4 1.0 WNW 0.50 7.0 WNW 47.4 45.8 45.8 29.901 0.00 0.00 0.367 0.000 67.8 48 47.4 66.3 681 2 100.0 30
5/02/26 9:00p 46.6 47.4 46.6 37 21.7 2.0 WNW 1.00 9.0 SSW 46.6 45.0 45.0 29.908 0.00 0.00 0.383 0.000 67.6 47 46.6 66.0 674 2 100.0 30
5/02/26 9:30p 45.8 46.6 45.7 38 21.6 2.0 WNW 1.00 9.0 NW 45.8 44.3 44.3 29.916 0.00 0.00 0.400 0.000 67.6 47 46.6 66.0 678 2 100.0 30
5/02/26 10:00p 45.4 45.8 45.4 37 20.6 1.0 WNW 0.50 8.0 NNW 45.4 43.9 43.9 29.919 0.00 0.00 0.408 0.000 67.7 47 46.7 66.1 675 2 100.0 30
5/02/26 10:30p 44.2 45.4 44.2 42 22.5 1.0 NW 0.50 4.0 WNW 44.2 42.8 42.8 29.911 0.00 0.00 0.433 0.000 67.3 46 45.8 65.5 679 2 100.0 30
5/02/26 11:00p 43.1 44.3 43.1 43 22.1 1.0 NW 0.50 4.0 WNW 43.1 41.8 41.8 29.908 0.00 0.00 0.456 0.000 66.8 46 45.3 65.0 679 2 100.0 30
5/02/26 11:30p 42.7 43.1 42.6 41 20.6 2.0 NNW 1.00 6.0 NNE 42.7 41.3 41.3 29.908 0.00 0.00 0.465 0.000 66.4 46 45.0 64.5 675 2 100.0 30
5/03/26 12:00a 41.4 42.6 41.3 43 20.5 1.0 N 0.50 4.0 N 41.4 40.1 40.1 29.908 0.00 0.00 0.492 0.000 66.1 45 44.1 64.0 681 2 100.0 30
5/03/26 12:30a 40.8 41.4 40.7 45 21.1 2.0 NE 1.00 4.0 N 40.7 39.6 39.5 29.896 0.00 0.00 0.504 0.000 65.7 45 43.8 63.6 681 2 100.0 30
5/03/26 1:00a 40.9 41.3 40.8 46 21.7 1.0 NE 0.50 5.0 N 40.9 39.7 39.7 29.888 0.00 0.00 0.502 0.000 65.5 45 43.6 63.3 679 2 100.0 30
5/03/26 1:30a 40.6 41.0 40.6 49 22.9 1.0 N 0.50 7.0 NNW 40.6 39.5 39.5 29.878 0.00 0.00 0.508 0.000 65.2 45 43.3 63.0 679 2 100.0 30
5/03/26 2:00a 40.1 40.6 40.0 50 22.9 1.0 NNE 0.50 3.0 NNE 40.1 39.0 39.0 29.870 0.00 0.00 0.519 0.000 65.0 45 43.1 62.8 678 2 100.0 30
5/03/26 2:30a 39.7 40.2 39.7 54 24.4 0.0 NNE 0.00 2.0 NNE 39.7 38.7 38.7 29.868 0.00 0.00 0.527 0.000 64.9 44 42.5 62.6 679 2 100.0 30
5/03/26 3:00a 39.3 39.7 39.2 56 24.9 1.0 NNE 0.50 2.0 NNE 39.3 38.4 38.4 29.853 0.00 0.00 0.535 0.000 64.6 44 42.2 62.3 677 2 100.0 30
5/03/26 3:30a 39.1 39.3 39.0 54 23.8 0.0 NNE 0.00 2.0 NNE 39.1 38.2 38.2 29.842 0.00 0.00 0.540 0.000 64.5 44 42.1 62.2 679 2 100.0 30
5/03/26 4:00a 38.3 39.1 38.3 57 24.4 0.0 NNE 0.00 2.0 NNE 38.3 37.4 37.4 29.842 0.00 0.00 0.556 0.000 64.3 44 41.9 62.0 677 2 100.0 30
5/03/26 4:30a 39.2 39.2 38.0 59 26.1 1.0 NNE 0.50 4.0 NNW 39.2 38.4 38.4 29.835 0.00 0.00 0.537 0.000 64.1 44 41.7 61.8 677 2 100.0 30
5/03/26 5:00a 39.1 39.3 39.0 61 26.8 1.0 NNW 0.50 4.0 NNW 39.1 38.3 38.3 29.827 0.00 0.00 0.540 0.000 64.0 44 41.6 61.7 678 2 100.0 30
5/03/26 5:30a 38.9 39.1 38.9 61 26.6 1.0 N 0.50 3.0 NNW 38.9 38.1 38.1 29.819 0.00 0.00 0.544 0.000 63.8 44 41.5 61.5 680 2 100.0 30
5/03/26 6:00a 38.9 38.9 38.5 62 27.0 0.0 N 0.00 2.0 N 38.9 38.1 38.1 29.819 0.00 0.00 0.544 0.000 63.9 44 41.5 61.6 680 2 100.0 30
5/03/26 6:30a 38.7 39.0 38.4 64 27.6 0.0 NNW 0.00 3.0 N 38.7 38.0 38.0 29.824 0.00 0.00 0.548 0.000 65.3 47 44.5 63.3 677 2 100.0 30
5/03/26 7:00a 39.4 39.4 38.7 63 27.8 1.0 NNW 0.50 4.0 N 39.4 38.7 38.7 29.824 0.00 0.00 0.533 0.000 66.8 48 46.5 65.2 683 2 100.0 30
5/03/26 7:30a 40.8 40.8 39.4 60 28.0 2.0 NW 1.00 8.0 WNW 40.7 40.0 39.9 29.831 0.00 0.00 0.504 0.000 68.1 49 48.2 66.7 679 2 100.0 30
5/03/26 8:00a 41.5 41.5 40.8 60 28.6 3.0 NW 1.50 7.0 W 40.1 40.7 39.3 29.829 0.00 0.00 0.490 0.000 69.2 50 49.8 67.7 674 2 100.0 30
5/03/26 8:30a 42.6 42.6 41.5 56 28.0 3.0 NW 1.50 11.0 WNW 41.3 41.6 40.3 29.829 0.00 0.00 0.467 0.000 70.1 50 50.6 68.4 676 2 100.0 30
5/03/26 9:00a 43.7 43.8 42.6 52 27.2 4.0 NW 2.00 12.0 WNW 41.6 42.6 40.5 29.828 0.00 0.00 0.444 0.000 70.9 51 51.9 69.6 680 2 100.0 30
5/03/26 9:30a 45.1 45.1 43.7 47 26.1 6.0 NW 3.00 13.0 NW 41.8 43.9 40.6 29.829 0.00 0.00 0.415 0.000 71.2 50 51.6 69.9 682 2 100.0 30
5/03/26 10:00a 46.4 46.4 45.1 43 25.1 7.0 WNW 3.50 18.0 W 42.9 45.0 41.5 29.820 0.00 0.00 0.387 0.000 71.0 48 50.3 69.4 674 2 100.0 30
5/03/26 10:30a 47.8 47.9 46.3 36 22.1 9.0 NW 4.50 21.0 W 43.3 46.1 41.6 29.816 0.00 0.00 0.358 0.000 70.5 47 49.3 68.6 681 2 100.0 30
5/03/26 11:00a 48.1 49.0 47.7 35 21.7 9.0 NW 4.50 20.0 W 43.6 46.4 41.9 29.810 0.00 0.00 0.352 0.000 69.9 47 48.7 67.9 680 2 100.0 30
5/03/26 11:30a 47.8 48.8 47.6 35 21.4 10.0 NW 5.00 18.0 N 42.8 46.1 41.1 29.805 0.00 0.00 0.358 0.000 69.4 47 48.3 67.6 682 2 100.0 30
5/03/26 12:00p 48.2 48.5 47.5 34 21.1 9.0 WNW 4.50 20.0 WNW 43.7 46.5 42.0 29.804 0.00 0.00 0.350 0.000 69.0 47 47.9 67.3 676 2 100.0 30
5/03/26 12:30p 47.1 48.7 47.0 35 20.8 8.0 NW 4.00 20.0 NW 43.0 45.4 41.3 29.801 0.00 0.00 0.373 0.000 68.7 47 47.6 67.0 682 2 100.0 30
5/03/26 1:00p 48.5 48.5 47.1 33 20.7 9.0 WNW 4.50 21.0 NW 44.1 46.7 42.3 29.800 0.00 0.00 0.344 0.000 68.4 47 47.4 66.8 678 2 100.0 30
5/03/26 1:30p 48.8 49.1 48.5 32 20.2 9.0 NW 4.50 24.0 WNW 44.5 47.0 42.7 29.805 0.00 0.00 0.338 0.000 68.4 47 47.4 66.8 677 2 100.0 30
5/03/26 2:00p 49.3 49.4 48.2 30 19.1 10.0 NW 5.00 22.0 N 44.5 47.4 42.6 29.806 0.00 0.00 0.327 0.000 68.3 47 47.3 66.7 681 2 100.0 30
5/03/26 2:30p 49.5 50.1 49.3 30 19.3 9.0 WNW 4.50 22.0 W 45.3 47.6 43.4 29.803 0.00 0.00 0.323 0.000 68.3 47 47.3 66.7 680 2 100.0 30
5/03/26 3:00p 48.7 49.5 48.5 31 19.4 8.0 NW 4.00 21.0 NW 44.9 46.8 43.0 29.809 0.00 0.00 0.340 0.000 68.1 47 47.1 66.5 679 2 100.0 30
5/03/26 3:30p 48.9 49.7 48.7 29 18.0 9.0 WNW 4.50 22.0 WNW 44.6 47.0 42.7 29.810 0.00 0.00 0.335 0.000 68.1 47 47.1 66.5 677 2 100.0 30
5/03/26 4:00p 51.0 51.0 48.5 27 18.1 8.0 NW 4.00 21.0 WNW 47.7 48.7 45.4 29.800 0.00 0.00 0.292 0.000 68.0 47 47.0 66.4 672 2 100.0 30
5/03/26 4:30p 50.1 51.0 49.2 27 17.4 8.0 WNW 4.00 19.0 NW 46.6 48.1 44.6 29.799 0.00 0.00 0.310 0.000 68.0 47 47.0 66.4 674 2 100.0 30
5/03/26 5:00p 50.2 51.1 50.1 28 18.3 6.0 WNW 3.00 16.0 W 47.9 48.2 45.9 29.801 0.00 0.00 0.308 0.000 67.9 47 46.9 66.3 674 2 100.0 30
5/03/26 5:30p 51.0 51.7 49.7 28 19.0 7.0 NW 3.50 19.0 NNW 48.4 48.8 46.2 29.809 0.00 0.00 0.292 0.000 67.8 47 46.8 66.2 677 2 100.0 30
5/03/26 6:00p 50.6 51.5 50.1 28 18.6 5.0 WNW 2.50 16.0 W 48.9 48.5 46.8 29.814 0.00 0.00 0.300 0.000 67.6 47 46.6 66.0 676 2 100.0 30
5/03/26 6:30p 51.3 52.5 50.6 26 17.5 5.0 WNW 2.50 17.0 NW 49.8 48.9 47.4 29.813 0.00 0.00 0.285 0.000 67.4 47 46.5 65.7 680 2 100.0 30
5/03/26 7:00p 50.7 51.9 50.7 27 17.9 5.0 NW 2.50 12.0 N 49.0 48.5 46.8 29.815 0.00 0.00 0.298 0.000 67.1 46 45.6 65.3 676 2 100.0 30
5/03/26 7:30p 51.2 51.4 50.6 27 18.3 2.0 NW 1.00 8.0 W 51.2 48.9 48.9 29.815 0.00 0.00 0.287 0.000 66.8 46 45.3 65.0 682 2 100.0 30
5/03/26 8:00p 49.0 51.2 49.0 31 19.6 1.0 WNW 0.50 3.0 NW 49.0 47.1 47.1 29.822 0.00 0.00 0.333 0.000 66.6 46 45.2 64.7 676 2 100.0 30
5/03/26 8:30p 45.3 49.0 45.3 38 21.2 2.0 ENE 1.00 4.0 ENE 45.3 43.8 43.8 29.831 0.00 0.00 0.410 0.000 66.5 46 45.1 64.6 679 2 100.0 30
5/03/26 9:00p 44.1 45.4 43.7 39 20.7 3.0 ENE 1.50 4.0 ENE 43.0 42.7 41.6 29.841 0.00 0.00 0.435 0.000 66.5 46 45.1 64.6 679 2 100.0 30
5/03/26 9:30p 43.2 44.1 43.2 39 19.9 2.0 ESE 1.00 3.0 ESE 43.2 41.8 41.8 29.855 0.00 0.00 0.454 0.000 66.8 47 45.9 65.1 677 2 100.0 30
5/03/26 10:00p 42.0 43.3 41.9 44 21.6 2.0 E 1.00 5.0 ESE 42.0 40.8 40.8 29.863 0.00 0.00 0.479 0.000 67.0 48 46.7 65.4 678 2 100.0 30
5/03/26 10:30p 43.1 43.2 42.0 43 22.1 2.0 ENE 1.00 3.0 E 43.1 41.8 41.8 29.871 0.00 0.00 0.456 0.000 66.7 48 46.4 65.0 682 2 100.0 30
5/03/26 11:00p 43.8 43.8 43.1 38 19.8 1.0 ESE 0.50 3.0 E 43.8 42.3 42.3 29.867 0.00 0.00 0.442 0.000 66.2 47 45.4 64.3 674 2 100.0 30
5/03/26 11:30p 44.0 44.7 43.8 42 22.4 1.0 ESE 0.50 3.0 ESE 44.0 42.6 42.6 29.865 0.00 0.00 0.438 0.000 65.9 47 45.1 64.0 681 2 100.0 30
5/04/26 12:00a 40.9 44.0 40.9 56 26.4 1.0 NNE 0.50 4.0 ENE 40.9 39.9 39.9 29.867 0.00 0.00 0.502 0.000 65.5 47 44.7 63.5 682 2 100.0 30
5/04/26 12:30a 40.4 40.9 40.2 53 24.6 1.0 E 0.50 4.0 ESE 40.4 39.4 39.4 29.876 0.00 0.00 0.512 0.000 65.2 46 43.9 63.1 674 2 100.0 30
5/04/26 1:00a 40.5 40.9 40.4 54 25.1 0.0 E 0.00 2.0 E 40.5 39.5 39.5 29.873 0.00 0.00 0.510 0.000 65.0 46 43.7 62.9 678 2 100.0 30
5/04/26 1:30a 39.7 40.5 39.7 58 26.1 1.0 E 0.50 5.0 E 39.7 38.8 38.8 29.876 0.00 0.00 0.527 0.000 64.8 46 43.5 62.7 682 2 100.0 30
5/04/26 2:00a 43.6 43.6 39.7 52 27.1 1.0 ESE 0.50 6.0 SE 43.6 42.5 42.5 29.867 0.00 0.00 0.446 0.000 64.6 45 42.8 62.4 683 2 100.0 30
5/04/26 2:30a 45.7 45.7 43.6 49 27.6 2.0 SE 1.00 4.0 SSE 45.7 44.6 44.6 29.860 0.00 0.00 0.402 0.000 64.5 45 42.7 62.3 681 2 100.0 30
5/04/26 3:00a 46.1 46.2 45.7 47 27.0 2.0 SE 1.00 6.0 S 46.1 44.9 44.9 29.860 0.00 0.00 0.394 0.000 64.3 45 42.5 62.1 676 2 100.0 30
5/04/26 3:30a 46.2 46.4 46.1 46 26.5 1.0 SE 0.50 4.0 SE 46.2 44.9 44.9 29.864 0.00 0.00 0.392 0.000 64.2 45 42.4 62.0 679 2 100.0 30
5/04/26 4:00a 45.4 46.2 45.0 48 26.8 1.0 ESE 0.50 5.0 ESE 45.4 44.2 44.2 29.860 0.00 0.00 0.408 0.000 64.1 44 41.7 61.8 680 2 100.0 30
5/04/26 4:30a 45.9 46.0 45.4 47 26.8 2.0 SE 1.00 8.0 SE 45.9 44.7 44.7 29.866 0.00 0.00 0.398 0.000 64.0 44 41.6 61.7 676 2 100.0 30
5/04/26 5:00a 44.2 46.0 44.2 49 26.2 2.0 SE 1.00 6.0 SE 44.2 43.1 43.1 29.864 0.00 0.00 0.433 0.000 63.9 44 41.5 61.6 675 2 100.0 30
5/04/26 5:30a 44.7 44.9 44.1 50 27.2 3.0 ESE 1.50 6.0 ESE 43.7 43.6 42.6 29.859 0.00 0.00 0.423 0.000 63.8 44 41.5 61.5 678 2 100.0 30
5/04/26 6:00a 44.2 44.7 43.6 51 27.2 1.0 E 0.50 4.0 E 44.2 43.1 43.1 29.858 0.00 0.00 0.433 0.000 63.9 44 41.5 61.6 676 2 100.0 30
5/04/26 6:30a 43.8 44.3 43.4 52 27.3 3.0 E 1.50 8.0 ESE 42.7 42.7 41.6 29.858 0.00 0.00 0.442 0.000 65.2 47 44.5 63.2 678 2 100.0 30
5/04/26 7:00a 44.9 44.9 43.8 50 27.4 3.0 ESE 1.50 8.0 SE 43.9 43.8 42.8 29.869 0.00 0.00 0.419 0.000 66.8 49 47.0 65.3 680 2 100.0 30
5/04/26 7:30a 45.8 45.8 44.8 48 27.2 4.0 ESE 2.00 11.0 ESE 44.0 44.6 42.8 29.871 0.00 0.00 0.400 0.000 68.1 50 48.8 66.8 672 2 100.0 30
5/04/26 8:00a 47.3 47.3 45.8 47 28.1 4.0 ESE 2.00 11.0 ESE 45.8 46.0 44.5 29.872 0.00 0.00 0.369 0.000 69.2 50 49.8 67.7 680 2 100.0 30
5/04/26 8:30a 50.8 50.8 47.3 43 29.1 3.0 ESE 1.50 11.0 SE 50.6 49.3 49.1 29.865 0.00 0.00 0.296 0.000 70.1 51 51.1 68.5 678 2 100.0 30
5/04/26 9:00a 54.1 54.2 50.8 41 30.9 3.0 SE 1.50 11.0 S 54.1 51.9 51.9 29.854 0.00 0.00 0.227 0.000 70.6 51 51.6 69.2 680 2 100.0 30
5/04/26 9:30a 57.1 57.1 54.2 36 30.4 3.0 SSE 1.50 13.0 SE 57.1 54.3 54.3 29.847 0.00 0.00 0.165 0.000 70.8 50 51.2 69.3 676 2 100.0 30
5/04/26 10:00a 60.0 60.1 57.1 30 28.4 4.0 SSE 2.00 12.0 SW 60.0 56.5 56.5 29.833 0.00 0.00 0.104 0.000 70.6 49 50.5 69.0 676 2 100.0 30
5/04/26 10:30a 61.9 62.0 60.1 27 27.5 6.0 WSW 3.00 19.0 SSW 61.9 57.8 57.8 29.833 0.00 0.00 0.065 0.000 70.2 48 49.6 68.4 681 2 100.0 30
5/04/26 11:00a 62.8 63.0 61.9 26 27.4 7.0 WSW 3.50 21.0 SW 62.7 58.5 58.4 29.825 0.00 0.00 0.046 0.000 69.6 48 49.0 67.8 676 2 100.0 30
5/04/26 11:30a 63.3 63.3 62.5 27 28.7 5.0 SW 2.50 21.0 SSW 63.3 59.1 59.1 29.811 0.00 0.00 0.035 0.000 69.3 48 48.8 67.6 676 2 100.0 30
5/04/26 12:00p 65.0 65.0 63.3 26 29.2 5.0 SW 2.50 22.0 SSW 65.0 60.6 60.6 29.808 0.00 0.00 0.000 0.000 69.1 47 48.0 67.4 679 2 100.0 30
5/04/26 12:30p 64.8 65.2 63.9 27 30.0 5.0 SSW 2.50 16.0 SSW 64.8 60.6 60.6 29.803 0.00 0.00 0.004 0.000 68.9 47 47.8 67.2 683 2 100.0 30
5/04/26 1:00p 64.5 65.0 64.5 26 28.8 6.0 WNW 3.00 19.0 SSW 64.5 60.1 60.1 29.798 0.00 0.00 0.010 0.000 69.0 46 47.4 67.2 681 2 100.0 30
5/04/26 1:30p 65.6 65.6 64.1 27 30.7 5.0 WNW 2.50 13.0 SSW 65.6 61.3 61.3 29.789 0.00 0.00 0.000 0.012 69.0 46 47.4 67.2 679 2 100.0 30
5/04/26 2:00p 65.9 66.0 65.3 26 30.0 6.0 SW 3.00 19.0 W 65.9 61.4 61.4 29.785 0.00 0.00 0.000 0.019 68.9 46 47.3 67.1 681 2 100.0 30
5/04/26 2:30p 65.9 67.1 65.9 25 29.1 4.0 SW 2.00 12.0 WSW 65.9 61.2 61.2 29.778 0.00 0.00 0.000 0.019 68.9 46 47.3 67.1 678 2 100.0 30
5/04/26 3:00p 68.3 69.0 65.9 24 30.1 5.0 WNW 2.50 16.0 SSW 68.3 64.0 64.0 29.773 0.00 0.00 0.000 0.069 69.0 45 46.8 67.1 679 2 100.0 30
5/04/26 3:30p 69.7 70.0 68.3 24 31.3 5.0 SW 2.50 21.0 WNW 69.7 65.5 65.5 29.772 0.00 0.00 0.000 0.098 69.3 45 47.0 67.3 681 2 100.0 30
5/04/26 4:00p 69.2 70.0 69.1 24 30.8 5.0 SW 2.50 13.0 W 69.2 64.9 64.9 29.766 0.00 0.00 0.000 0.087 69.6 44 46.7 67.4 679 2 100.0 30
5/04/26 4:30p 69.4 71.6 69.2 24 31.0 5.0 WNW 2.50 15.0 SW 69.4 65.1 65.1 29.766 0.00 0.00 0.000 0.092 69.7 44 46.8 67.5 682 2 100.0 30
5/04/26 5:00p 70.2 70.2 69.3 24 31.7 5.0 WNW 2.50 16.0 WNW 70.2 66.1 66.1 29.760 0.00 0.00 0.000 0.108 69.8 43 46.3 67.5 681 2 100.0 30
5/04/26 5:30p 69.9 70.6 69.4 23 30.4 4.0 SW 2.00 12.0 W 69.9 65.6 65.6 29.760 0.00 0.00 0.000 0.102 69.7 42 45.6 67.3 678 2 100.0 30
5/04/26 6:00p 70.8 70.8 69.8 23 31.1 4.0 W 2.00 12.0 SE 70.8 66.8 66.8 29.749 0.00 0.00 0.000 0.121 69.6 42 45.5 67.2 680 2 100.0 30
5/04/26 6:30p 69.8 70.8 69.7 25 32.4 4.0 W 2.00 14.0 WSW 69.8 65.7 65.7 29.754 0.00 0.00 0.000 0.100 69.6 42 45.5 67.2 682 2 100.0 30
5/04/26 7:00p 68.0 69.8 67.9 25 30.8 3.0 SW 1.50 11.0 WNW 68.0 63.8 63.8 29.761 0.00 0.00 0.000 0.063 69.4 42 45.3 67.1 677 2 100.0 30
5/04/26 7:30p 67.1 67.9 67.1 27 32.0 2.0 SE 1.00 7.0 SE 67.1 62.9 62.9 29.765 0.00 0.00 0.000 0.044 69.4 42 45.3 67.1 681 2 100.0 30
5/04/26 8:00p 65.2 67.0 65.2 28 31.2 3.0 SE 1.50 10.0 SE 65.2 61.1 61.1 29.781 0.00 0.00 0.000 0.004 69.2 42 45.1 66.9 680 2 100.0 30
5/04/26 8:30p 64.0 65.2 64.0 30 31.9 3.0 ESE 1.50 10.0 SE 64.0 60.3 60.3 29.790 0.00 0.00 0.021 0.000 69.0 42 44.9 66.8 679 2 100.0 30
5/04/26 9:00p 63.5 64.0 63.4 29 30.6 3.0 ESE 1.50 7.0 ESE 63.5 59.6 59.6 29.798 0.00 0.00 0.031 0.000 68.8 42 44.8 66.6 680 2 100.0 30
5/04/26 9:30p 61.9 63.6 61.9 35 33.9 3.0 SE 1.50 11.0 WSW 61.9 58.7 58.7 29.806 0.00 0.00 0.065 0.000 68.7 42 44.7 66.5 680 2 100.0 30
5/04/26 10:00p 60.3 61.9 60.3 40 35.9 4.0 ESE 2.00 16.0 SSE 60.3 57.6 57.6 29.813 0.00 0.00 0.098 0.000 68.5 43 45.1 66.4 679 2 100.0 30
5/04/26 10:30p 59.0 60.3 59.0 42 35.9 3.0 SE 1.50 11.0 ESE 59.0 56.5 56.5 29.821 0.00 0.00 0.125 0.000 68.4 43 45.0 66.3 684 2 100.0 30
5/04/26 11:00p 57.8 59.1 57.8 45 36.6 3.0 SE 1.50 10.0 SE 57.8 55.5 55.5 29.823 0.00 0.00 0.150 0.000 68.3 43 44.9 66.2 675 2 100.0 30
5/04/26 11:30p 56.8 57.8 56.8 47 36.8 4.0 ESE 2.00 11.0 ESE 56.8 54.7 54.7 29.826 0.00 0.00 0.171 0.000 68.2 43 44.8 66.1 678 2 100.0 30
5/05/26 12:00a 55.8 56.8 55.8 49 36.9 4.0 ESE 2.00 10.0 ESE 55.6 53.9 53.7 29.831 0.00 0.00 0.192 0.000 68.1 43 44.7 66.1 677 2 100.0 30
5/05/26 12:30a 55.1 55.8 55.1 50 36.8 6.0 SE 3.00 14.0 SE 53.7 53.3 51.9 29.834 0.00 0.00 0.206 0.000 67.9 44 45.2 66.0 676 2 100.0 30
5/05/26 1:00a 54.4 55.1 54.4 52 37.1 5.0 SE 2.50 15.0 ESE 53.4 52.8 51.8 29.835 0.00 0.00 0.221 0.000 67.8 45 45.7 66.0 676 2 100.0 30
5/05/26 1:30a 53.4 54.4 53.3 54 37.2 2.0 SE 1.00 11.0 ESE 53.4 52.0 52.0 29.829 0.00 0.00 0.242 0.000 67.8 46 46.3 66.1 682 2 100.0 30
5/05/26 2:00a 53.3 53.5 53.3 54 37.1 2.0 ESE 1.00 7.0 ESE 53.3 51.9 51.9 29.828 0.00 0.00 0.244 0.000 67.6 47 46.6 66.0 685 2 100.0 30
5/05/26 2:30a 53.3 53.3 53.2 55 37.5 3.0 SE 1.50 10.0 SSE 53.3 51.9 51.9 29.821 0.00 0.00 0.244 0.000 67.4 47 46.5 65.7 676 2 100.0 30
5/05/26 3:00a 53.1 53.3 53.1 55 37.3 3.0 SE 1.50 10.0 SSE 53.1 51.7 51.7 29.817 0.00 0.00 0.248 0.000 67.3 48 46.9 65.7 678 2 100.0 30
5/05/26 3:30a 52.5 53.1 52.5 57 37.7 2.0 SE 1.00 8.0 ESE 52.5 51.3 51.3 29.816 0.00 0.00 0.260 0.000 67.2 48 46.8 65.6 679 2 100.0 30
5/05/26 4:00a 52.3 52.5 52.2 57 37.5 2.0 SE 1.00 8.0 SE 52.3 51.1 51.1 29.813 0.00 0.00 0.265 0.000 67.0 49 47.2 65.5 679 2 100.0 30
5/05/26 4:30a 51.7 52.3 51.7 59 37.8 2.0 SE 1.00 7.0 ESE 51.7 50.7 50.7 29.818 0.00 0.00 0.277 0.000 66.9 49 47.1 65.4 678 2 100.0 30
5/05/26 5:00a 50.8 51.7 50.8 61 37.8 1.0 ESE 0.50 8.0 ESE 50.8 50.0 50.0 29.813 0.00 0.00 0.296 0.000 66.7 49 46.9 65.1 673 2 100.0 30
5/05/26 5:30a 50.9 51.0 50.6 61 37.9 2.0 SE 1.00 8.0 SE 50.9 50.0 50.0 29.811 0.00 0.00 0.294 0.000 66.6 49 46.8 65.0 676 2 100.0 30
5/05/26 6:00a 50.5 51.0 50.5 62 38.0 1.0 SE 0.50 6.0 SE 50.5 49.7 49.7 29.809 0.00 0.00 0.302 0.000 66.6 48 46.3 64.9 679 2 100.0 30
5/05/26 6:30a 50.1 50.6 50.0 63 38.0 1.0 ESE 0.50 4.0 SSW 50.1 49.4 49.4 29.821 0.00 0.00 0.310 0.000 67.8 49 47.9 66.4 676 2 100.0 30
5/05/26 7:00a 51.2 51.2 50.0 63 39.0 2.0 SE 1.00 7.0 SE 51.2 50.4 50.4 29.821 0.00 0.00 0.287 0.000 69.2 50 49.8 67.7 678 2 100.0 30
5/05/26 7:30a 53.3 53.3 51.1 61 40.2 2.0 SE 1.00 7.0 SSE 53.3 52.2 52.2 29.830 0.00 0.00 0.244 0.000 70.3 51 51.3 68.8 678 2 100.0 30
5/05/26 8:00a 53.8 53.9 53.2 60 40.2 3.0 SE 1.50 10.0 SE 53.8 52.6 52.6 29.828 0.00 0.00 0.233 0.000 70.9 50 51.3 69.5 678 2 100.0 30
5/05/26 8:30a 56.5 56.5 53.7 57 41.4 3.0 SE 1.50 10.0 E 56.5 55.0 55.0 29.824 0.00 0.00 0.177 0.000 71.2 49 51.1 69.8 678 2 100.0 30
5/05/26 9:00a 59.4 59.4 56.4 53 42.3 3.0 S 1.50 9.0 E 59.4 57.6 57.6 29.826 0.00 0.00 0.117 0.000 71.1 48 50.4 69.6 677 2 100.0 30
5/05/26 9:30a 61.9 61.9 59.4 51 43.6 3.0 SSE 1.50 12.0 SE 61.9 60.1 60.1 29.819 0.00 0.00 0.065 0.000 71.0 48 50.3 69.4 682 2 100.0 30
5/05/26 10:00a 64.2 64.2 61.9 48 44.1 3.0 ESE 1.50 9.0 ESE 64.2 62.3 62.3 29.817 0.00 0.00 0.017 0.000 71.2 48 50.5 69.7 682 2 100.0 30
5/05/26 10:30a 66.4 66.4 64.2 45 44.4 4.0 ESE 2.00 11.0 ESE 66.4 64.4 64.4 29.807 0.00 0.00 0.000 0.029 71.3 47 50.0 69.8 676 2 100.0 30
5/05/26 11:00a 71.2 71.2 66.4 40 45.6 4.0 SE 2.00 13.0 SE 71.2 68.9 68.9 29.801 0.00 0.00 0.000 0.129 71.5 47 50.2 70.0 677 2 100.0 30
5/05/26 11:30a 73.0 73.0 71.2 40 47.2 6.0 ESE 3.00 14.0 E 73.0 71.7 71.7 29.783 0.00 0.00 0.000 0.167 71.5 47 50.2 70.0 684 2 100.0 30
5/05/26 12:00p 75.4 75.4 73.0 35 45.8 6.0 SE 3.00 15.0 SE 75.4 74.2 74.2 29.767 0.00 0.00 0.000 0.217 71.6 47 50.3 70.2 679 2 100.0 30
5/05/26 12:30p 77.1 77.1 75.4 35 47.3 6.0 SE 3.00 16.0 SE 77.1 76.1 76.1 29.747 0.00 0.00 0.000 0.252 71.6 46 49.7 70.1 678 2 100.0 30
5/05/26 1:00p 78.2 78.6 77.1 31 45.1 7.0 SE 3.50 19.0 ESE 78.2 76.6 76.6 29.733 0.00 0.00 0.000 0.275 71.7 46 49.8 70.2 684 2 100.0 30
5/05/26 1:30p 79.5 79.5 78.1 31 46.2 6.0 SSE 3.00 18.0 SSE 79.5 77.7 77.7 29.723 0.00 0.00 0.000 0.302 71.7 46 49.8 70.2 681 2 100.0 30
5/05/26 2:00p 79.7 80.5 79.5 29 44.6 6.0 SSE 3.00 19.0 ESE 79.7 77.7 77.7 29.716 0.00 0.00 0.000 0.306 71.8 46 49.9 70.4 677 2 100.0 30
5/05/26 2:30p 79.8 80.0 79.6 29 44.7 5.0 S 2.50 19.0 SSE 79.8 77.7 77.7 29.693 0.00 0.00 0.000 0.308 71.8 46 49.9 70.4 682 2 100.0 30
5/05/26 3:00p 79.6 80.2 79.4 30 45.4 6.0 SE 3.00 20.0 SE 79.6 77.7 77.7 29.680 0.00 0.00 0.000 0.304 71.8 46 49.9 70.4 679 2 100.0 30
5/05/26 3:30p 81.6 82.0 79.6 22 39.1 5.0 W 2.50 24.0 SW 81.6 78.7 78.7 29.679 0.00 0.00 0.000 0.346 71.9 46 50.0 70.6 677 2 100.0 30
5/05/26 4:00p 80.1 81.7 80.0 23 38.9 6.0 S 3.00 26.0 SE 80.1 77.4 77.4 29.677 0.00 0.00 0.000 0.315 71.8 46 49.9 70.4 683 2 100.0 30
5/05/26 4:30p 81.5 81.5 80.1 20 36.5 6.0 SE 3.00 28.0 S 81.5 78.4 78.4 29.667 0.00 0.00 0.000 0.344 71.8 46 49.9 70.4 680 2 100.0 30
5/05/26 5:00p 81.9 81.9 81.3 20 36.9 7.0 SSW 3.50 24.0 WSW 81.9 78.8 78.8 29.665 0.00 0.00 0.000 0.352 71.8 46 49.9 70.4 677 2 100.0 30
5/05/26 5:30p 82.2 82.5 81.9 21 38.4 6.0 S 3.00 20.0 SSE 82.2 79.2 79.2 29.676 0.00 0.00 0.000 0.358 71.8 46 49.9 70.4 677 2 100.0 30
5/05/26 6:00p 79.5 82.2 79.5 27 42.6 5.0 S 2.50 23.0 SSW 79.5 77.3 77.3 29.681 0.00 0.00 0.000 0.302 71.7 45 49.2 70.1 680 2 100.0 30
5/05/26 6:30p 75.6 79.5 75.6 36 46.8 4.0 SSE 2.00 17.0 SSE 75.6 74.5 74.5 29.701 0.00 0.00 0.000 0.221 71.5 45 49.0 69.8 677 2 100.0 30
5/05/26 7:00p 73.7 75.6 73.7 37 45.8 4.0 WNW 2.00 18.0 S 73.7 72.4 72.4 29.742 0.00 0.00 0.000 0.181 71.3 45 48.9 69.6 685 2 100.0 30
5/05/26 7:30p 70.3 73.7 70.3 44 47.3 4.0 NW 2.00 14.0 NW 70.3 68.1 68.1 29.764 0.00 0.00 0.000 0.110 71.1 46 49.3 69.3 682 2 100.0 30
5/05/26 8:00p 69.1 70.3 69.1 46 47.4 1.0 SE 0.50 6.0 SW 69.1 67.3 67.3 29.780 0.00 0.00 0.000 0.085 71.0 46 49.2 69.2 678 2 100.0 30
5/05/26 8:30p 68.0 69.1 68.0 48 47.6 1.0 E 0.50 5.0 ESE 68.0 66.5 66.5 29.786 0.00 0.00 0.000 0.063 70.8 46 49.0 68.9 681 2 100.0 30
5/05/26 9:00p 67.3 68.0 67.1 50 48.0 2.0 E 1.00 6.0 SE 67.3 65.9 65.9 29.789 0.00 0.00 0.000 0.048 70.7 47 49.5 68.9 679 2 100.0 30
5/05/26 9:30p 66.9 67.3 66.9 51 48.2 2.0 E 1.00 9.0 SE 66.9 65.6 65.6 29.799 0.00 0.00 0.000 0.040 70.6 47 49.4 68.8 675 2 100.0 30
5/05/26 10:00p 66.5 66.9 66.4 52 48.3 3.0 ESE 1.50 9.0 E 66.5 65.2 65.2 29.819 0.00 0.00 0.000 0.031 70.5 47 49.3 68.6 677 2 100.0 30
5/05/26 10:30p 65.1 66.5 65.1 54 48.0 3.0 ESE 1.50 10.0 ESE 65.1 63.8 63.8 29.805 0.00 0.00 0.000 0.002 70.4 47 49.2 68.5 677 2 100.0 30
5/05/26 11:00p 64.8 65.1 64.8 52 46.8 2.0 SE 1.00 10.0 SSW 64.8 63.3 63.3 29.809 0.00 0.00 0.004 0.000 70.3 47 49.1 68.4 677 2 100.0 30
5/05/26 11:30p 64.1 64.8 64.1 53 46.6 2.0 SE 1.00 8.0 SSE 64.1 62.6 62.6 29.810 0.00 0.00 0.019 0.000 70.2 47 49.0 68.3 681 2 100.0 30
5/06/26 12:00a 63.0 64.1 63.0 54 46.1 3.0 SE 1.50 9.0 E 63.0 61.5 61.5 29.813 0.00 0.00 0.042 0.000 70.1 47 48.9 68.1 678 2 100.0 30
5/06/26 12:30a 62.2 63.1 62.2 54 45.3 3.0 SE 1.50 10.0 E 62.2 60.6 60.6 29.813 0.00 0.00 0.058 0.000 69.9 47 48.7 67.9 681 2 100.0 30
5/06/26 1:00a 61.1 62.2 61.1 55 44.8 3.0 SE 1.50 9.0 ESE 61.1 59.5 59.5 29.810 0.00 0.00 0.081 0.000 69.8 47 48.7 67.9 683 2 100.0 30
5/06/26 1:30a 60.4 61.1 60.4 56 44.6 3.0 ESE 1.50 9.0 ESE 60.4 58.9 58.9 29.806 0.00 0.00 0.096 0.000 69.7 47 48.6 67.8 680 2 100.0 30
5/06/26 2:00a 59.8 60.5 59.8 58 45.0 2.0 SE 1.00 8.0 SE 59.8 58.4 58.4 29.809 0.00 0.00 0.108 0.000 69.6 47 48.5 67.7 678 2 100.0 30
5/06/26 2:30a 59.3 59.8 59.3 59 45.0 2.0 ESE 1.00 8.0 SSW 59.3 57.9 57.9 29.804 0.00 0.00 0.119 0.000 69.6 47 48.5 67.7 678 2 100.0 30
5/06/26 3:00a 58.4 59.3 58.4 61 45.0 2.0 ESE 1.00 6.0 ENE 58.4 57.2 57.2 29.809 0.00 0.00 0.137 0.000 69.4 47 48.3 67.6 681 2 100.0 30
5/06/26 3:30a 57.9 58.5 57.9 62 45.0 1.0 ESE 0.50 5.0 ESE 57.9 56.7 56.7 29.810 0.00 0.00 0.148 0.000 69.3 47 48.2 67.5 681 2 100.0 30
5/06/26 4:00a 57.4 57.9 57.4 63 44.9 2.0 E 1.00 5.0 SSE 57.4 56.3 56.3 29.803 0.00 0.00 0.158 0.000 69.2 47 48.1 67.4 679 2 100.0 30
5/06/26 4:30a 56.8 57.5 56.7 65 45.2 3.0 E 1.50 6.0 SE 56.8 55.8 55.8 29.800 0.00 0.00 0.171 0.000 69.1 47 48.0 67.4 684 2 100.0 30
5/06/26 5:00a 57.0 57.1 56.8 65 45.3 2.0 ESE 1.00 8.0 SSE 57.0 56.0 56.0 29.797 0.00 0.00 0.167 0.000 69.0 47 47.9 67.3 677 2 100.0 30
5/06/26 5:30a 56.6 57.1 56.6 67 45.8 2.0 ESE 1.00 9.0 SE 56.6 55.7 55.7 29.790 0.00 0.00 0.175 0.000 68.8 47 47.7 67.1 679 2 100.0 30
5/06/26 6:00a 56.5 56.7 56.4 68 46.1 2.0 SE 1.00 8.0 SE 56.5 55.6 55.6 29.797 0.00 0.00 0.177 0.000 68.8 47 47.7 67.1 682 2 100.0 30
5/06/26 6:30a 56.8 56.9 56.5 68 46.3 3.0 SE 1.50 9.0 SE 56.8 55.9 55.9 29.797 0.00 0.00 0.171 0.000 68.9 47 47.8 67.2 680 2 100.0 30
5/06/26 7:00a 56.9 56.9 56.8 68 46.4 3.0 SE 1.50 13.0 ESE 56.9 56.0 56.0 29.799 0.00 0.00 0.169 0.000 69.0 47 47.9 67.3 680 2 100.0 30
5/06/26 7:30a 57.3 57.3 56.8 68 46.8 3.0 SE 1.50 10.0 ESE 57.3 56.4 56.4 29.798 0.00 0.00 0.160 0.000 69.2 47 48.1 67.4 677 2 100.0 30
5/06/26 8:00a 57.9 57.9 57.2 68 47.4 3.0 SE 1.50 10.0 ESE 57.9 57.0 57.0 29.789 0.00 0.00 0.148 0.000 69.4 47 48.3 67.6 678 2 100.0 30